Simultaneous Nadir Overpasses (SNOs) Predictions

Prediction of SNOs between NOAA-19 and TERRA Satellite Orbit:

Table of predicted SNOs for the next 14.0 days since TLE Epoch: 2/4/2023
Index Date (NOAA-19) Time (NOAA-19) Lat,Lon (NOAA-19) SZA (NOAA-19 ) Date (TERRA) Time (TERRA) Lat,Lon (TERRA) SZA (TERRA ) Distance(km) Time Diff (sec)
1 02/05/2023 13:44:25 -80.93,-171.13 81.94 02/05/2023 13:45:24 -80.92,-171.14 81.93 0.56 59
2 02/05/2023 14:35:25 80.93, -3.41 98.09 02/05/2023 14:34:46 80.94, -3.26 98.10 2.95 39
3 02/07/2023 17:35:09 80.93, -48.77 97.40 02/07/2023 17:36:11 80.94, -48.61 97.45 3.35 62
4 02/07/2023 18:26:04 -80.93, 119.11 82.57 02/07/2023 18:25:33 -80.94, 118.99 82.58 2.46 31
5 02/09/2023 21:25:49 -80.93, 73.51 83.29 02/09/2023 21:26:59 -80.93, 73.57 83.26 1.33 70
6 02/09/2023 22:16:50 80.93,-119.15 96.71 02/09/2023 22:16:21 80.92,-118.98 96.70 3.18 29
7 02/12/2023 01:16:33 80.93,-164.26 96.00 02/12/2023 01:17:45 80.93,-164.20 96.03 1.08 72
8 02/12/2023 02:07:28 -80.93, 3.65 83.96 02/12/2023 02:07:08 -80.93, 3.48 83.98 3.15 20
9 02/14/2023 05:58:14 80.93, 125.62 95.29 02/14/2023 05:57:55 80.91, 125.55 95.27 1.85 19



Historial Predications of SNOs between NOAA-19 and TERRA
